sat.trackr.live / text

‹ back to catalog

STARLINK-11319 [DTC]

NORAD 61251 · 2024-175J

PAYLOAD ACTIVE UNKNOWN

§ Identity

Operator
Country
US
Launch date
2024-09-25
Launch site
AFWTR
Launch vehicle
Mass (kg)
RCS (m²)

Purposes: comms

External: N2YO · Heavens-Above · Gunter

§ Orbital elements

Epoch: 2026-05-24T23:22:42.744576Z

Period
91.74 min
Inclination
53.1591°
Eccentricity
0.0000803
Mean motion
15.69705825 rev/d
Perigee alt
359.2 km
Apogee alt
360.3 km
Semi-major
6,737.9 km
B*
1.2874e-5
RAAN
40.5140°
Arg perigee
83.6633°
Mean anomaly
276.4476°
Rev number
9,534

§ Raw data

STARLINK-11319 [DTC]1 61251U 24175J   26144.97410584  .00000971  00000+0  12874-4 0  99912 61251  53.1591  40.5140 0000803  83.6633 276.4476 15.69705825 95340

JSON: /api/v1/satellites/61251 · /tle

For live sub-satellite position, see the globe view (requires WebGL).

§ Visibility from observer

Set your observer location to see the next 7 days of passes ≥ 10°. The values pass through the URL so the page stays shareable.

No JS? Fill the form by hand. The geolocation button needs JavaScript.